Location: Unspecified
(48.7670°N, 0.0000°E)
Time: 22:37:34
(UTC+00:00)

Altair - Pass Details

Date: 04 July 2019
Orbit: 1501 x 1683 km, 47.2° (Epoch: 14 July)

Event Time Altitude Azimuth Distance (km) Brightness Sun altitude
Rises 17:31:41 0° 243° (WSW) 4,647 10.9 22.2°
Reaches altitude 10° 17:34:41 10° 241° (WSW) 3,681 10.4 21.8°
Maximum altitude 17:43:54 70° 161° (SSE) 1,639 7.9 20.3°
Drops below altitude 10° 17:53:29 10° 80° (E) 3,820 9.1 18.7°
Sets 17:56:39 0° 79° (ENE) 4,831 9.6 18.2°
